Temperature
23 22 21 21 20 21 21 21 20 20 20 19 19 19 18 18 18 18 18 18 18 18 18 17 17 17 17 17 17 17 17 17 17 17 17 18 17 17 17 17 17 17 17
24 22 21 21 21 21 21 21 20 20 20 20 19 19 18 18 18 18 18 18 18 18 18 18 17 17 17 17 17 17 17 17 17 17 17 18 18 18 18 18 17 17 17
24 23 21 21 21 21 21 21 21 20 20 20 19 19 18 18 18 18 18 18 18 18 18 18 18 17 17 17 17 17 17 17 17 17 17 18 19 19 19 18 18 17 17
25 23 22 21 21 21 21 21 21 21 20 20 19 19 18 18 18 18 18 18 18 18 18 18 18 18 17 17 17 17 17 17 17 17 17 17 18 18 19 18 18 18 17
25 24 23 22 21 21 21 21 21 21 20 20 20 19 19 18 18 18 18 18 18 18 18 18 18 18 18 17 17 17 17 17 17 17 17 17 17 17 18 18 18 18 18
25 24 23 22 21 21 20 20 21 21 20 20 20 19 19 19 18 18 18 18 18 18 18 18 18 18 18 18 18 17 17 17 17 17 17 17 17 17 17 18 18 18 18
25 24 23 22 21 21 21 20 21 21 20 20 20 19 19 19 19 19 18 18 18 18 18 18 18 18 18 18 18 17 17 17 17 17 17 17 17 17 17 17 18 18 18
25 24 23 23 22 21 21 21 21 21 20 20 20 20 19 19 19 19 18 18 18 18 18 18 18 18 18 17 17 17 17 17 17 17 17 17 17 17 17 17 17 17 18
25 24 23 23 22 21 21 21 21 21 20 20 20 20 19 19 19 18 18 18 18 18 18 18 18 18 17 17 17 17 17 17 17 17 17 16 16 16 16 16 16 16 17
25 24 23 22 22 21 21 20 20 20 20 20 20 19 19 19 19 19 18 18 18 18 18 18 18 17 17 17 17 17 17 17 17 17 17 16 16 16 16 16 16 16 16
25 24 23 22 21 21 20 20 20 20 20 20 20 19 19 19 19 18 18 18 18 18 18 18 17 17 17 17 17 17 17 17 17 16 16 16 16 16 16 16 16 16 16
24 24 23 22 21 20 20 20 19 19 19 19 19 19 19 19 18 18 18 18 18 18 18 17 17 17 17 17 17 17 16 16 16 16 16 16 16 16 16 16 16 15 15
23 23 22 21 21 20 20 19 19 19 19 19 19 19 18 18 18 18 18 18 17 17 17 17 17 17 17 17 17 16 16 16 16 16 16 16 15 15 15 15 15 15 15
22 22 21 20 20 20 19 19 19 19 19 19 19 18 18 18 18 18 18 17 17 17 17 17 17 17 16 16 16 16 16 16 16 15 15 15 15 15 15 15 15 15 15
22 21 20 20 19 19 19 19 19 19 19 19 18 18 18 18 18 18 17 17 17 17 17 16 16 16 16 16 16 16 16 15 15 15 15 15 15 15 15 14 14 14 14
21 21 20 19 19 19 19 18 18 18 18 18 18 18 18 17 17 17 17 17 17 16 16 16 16 16 16 16 16 15 15 15 15 15 15 15 14 14 14 14 14 14 14
21 20 19 19 18 18 18 18 18 18 18 18 17 17 17 17 17 17 17 17 16 16 16 16 16 15 15 15 15 15 15 15 15 14 14 14 14 14 14 14 14 13 13
20 19 19 18 18 18 18 18 18 17 17 17 17 17 16 16 16 16 16 16 16 15 15 15 15 15 15 15 15 15 15 14 14 14 14 14 13 13 13 13 13 13 12
19 19 18 18 18 18 18 18 17 17 17 17 17 16 16 16 16 16 16 15 15 15 15 15 14 14 14 14 14 14 14 14 13 13 13 13 13 13 12 12 12 12 12
18 18 18 18 18 18 17 17 17 17 16 16 16 16 16 16 16 15 15 15 15 15 14 14 14 14 14 14 14 14 13 13 12 12 12 12 12 12 12 11 11 11 11
17 17 17 17 17 17 17 17 16 16 16 16 16 16 16 15 15 15 15 14 14 14 14 13 13 13 13 13 13 13 13 12 12 11 11 11 11 11 11 11 11 11 10
17 17 17 17 17 17 16 16 16 16 15 15 15 15 15 15 15 15 14 14 14 13 13 13 12 12 12 12 12 12 12 12 11 11 11 11 11 11 11 10 10 10 10
16 16 16 16 16 16 16 16 15 15 15 15 15 15 14 14 14 14 13 13 13 13 12 12 12 11 11 11 12 11 11 11 11 10 10 10 10 10 10 10 9 9 9
16 15 15 16 15 15 15 15 15 15 15 14 14 14 14 13 13 13 13 13 12 12 12 12 11 11 11 11 11 11 10 10 10 10 9 9 9 9 9 9 8 8 8
15 15 15 15 14 14 14 14 14 14 14 14 13 13 13 13 13 12 12 12 12 11 11 11 11 11 10 10 10 10 10 10 9 9 9 9 9 9 8 8 8 8 8
15 15 14 14 14 14 14 14 13 13 13 13 13 13 13 12 12 12 11 11 11 11 11 11 10 10 10 10 10 10 10 9 9 9 9 9 9 8 8 8 8 8 7
Wind_Speed
16 16 16 15 15 14 14 14 14 13 11 10 10 9 8 8 7 8 9 9 8 8 8 6 6 6 6 5 6 5 5 5 4 4 4 5 6 6 5 7 6 7 8
16 17 17 16 16 16 16 15 15 14 13 11 9 8 7 7 8 7 8 10 10 9 9 8 7 7 6 7 7 6 6 5 4 4 4 4 5 6 7 6 7 7 7
17 18 18 18 17 17 17 15 16 15 15 12 9 7 7 7 8 8 8 10 11 11 10 9 9 7 8 7 7 7 8 6 6 6 5 4 4 3 5 6 6 6 6
16 17 18 18 18 17 16 16 15 15 14 13 12 12 10 10 10 8 8 9 11 12 11 11 10 9 8 8 8 8 7 7 7 6 6 7 6 5 4 5 6 7 7
15 17 18 18 17 16 16 15 15 15 14 14 14 13 12 10 8 8 8 9 9 11 12 12 10 9 9 9 9 7 8 7 8 7 6 7 7 8 7 6 5 6 7
14 15 15 15 15 15 15 15 15 15 15 15 15 15 13 11 10 10 9 8 8 9 11 12 10 10 9 9 9 8 9 8 8 7 7 7 6 7 7 7 7 7 6
12 14 15 15 15 16 15 14 15 15 15 15 15 15 14 13 12 11 9 9 8 8 10 10 9 9 9 9 9 9 9 9 9 8 8 7 8 7 7 8 8 8 7
11 13 14 15 15 16 15 15 15 14 14 14 14 13 13 11 10 10 9 9 8 8 8 9 9 9 9 10 9 9 9 8 9 10 9 7 8 7 7 7 8 8 8
10 12 13 13 14 14 15 15 14 13 13 13 12 12 12 12 10 9 10 9 8 8 9 8 9 9 9 10 9 8 9 8 8 8 8 8 7 6 7 6 7 7 8
8 9 10 12 12 12 13 13 13 13 12 12 11 10 12 12 10 9 10 9 9 8 8 8 8 8 9 9 9 8 8 8 7 7 7 7 6 5 6 6 6 6 7
8 9 9 10 11 11 12 12 12 11 11 11 10 10 10 10 10 9 9 9 8 8 8 8 8 8 7 7 8 8 8 8 7 7 7 7 7 6 5 5 6 6 6
7 8 9 9 10 10 10 10 10 10 10 9 9 9 8 8 8 8 7 7 7 7 7 6 6 7 6 6 7 7 7 7 6 6 6 7 6 7 6 5 5 5 6
6 7 7 8 9 9 9 9 8 9 9 8 8 7 7 7 7 6 6 6 5 5 4 4 4 5 5 5 5 5 5 5 4 4 4 5 4 5 4 4 4 4 4
7 7 7 7 7 8 8 8 8 7 7 7 7 6 6 5 5 5 5 5 5 4 4 4 3 3 3 3 3 3 4 3 2 2 2 3 3 3 3 3 3 3 3
7 7 7 7 7 7 7 7 7 7 7 7 6 5 5 4 4 4 4 4 4 4 4 4 3 3 3 2 2 3 3 3 2 1 0 0 2 4 2 2 2 2 2
8 8 8 8 7 7 8 8 7 7 7 7 6 5 5 5 4 3 4 4 4 4 3 4 3 3 2 3 3 1 3 2 2 2 2 2 4 5 5 6 6 5 2
8 9 9 8 8 8 8 8 8 7 7 7 6 6 5 5 5 4 4 4 4 4 4 4 4 4 5 6 5 4 4 4 4 3 3 3 4 3 4 5 5 7 7
9 9 10 10 9 9 9 9 9 8 8 7 7 6 5 6 6 5 5 5 5 5 4 4 5 5 6 7 6 5 6 6 6 6 5 5 5 5 4 5 7 8 8
10 10 10 11 10 10 10 10 9 8 8 8 7 6 6 7 6 6 6 5 6 6 5 5 5 6 6 7 6 4 6 6 7 7 7 6 6 7 5 6 7 7 7
10 10 10 11 11 10 10 10 9 9 8 7 7 7 7 7 7 6 6 6 6 7 7 7 7 8 7 8 7 4 5 6 5 6 7 10 9 8 7 5 5 6 5
11 11 11 10 10 10 10 10 10 9 8 8 8 8 8 7 7 7 7 8 8 8 8 9 8 8 8 8 9 7 5 5 5 6 6 7 10 10 9 7 6 5 3
12 12 11 10 9 9 10 10 9 8 8 9 9 8 8 7 7 8 8 8 9 9 8 8 8 7 8 9 10 11 9 7 7 6 6 7 9 11 11 9 6 4 3
11 11 11 11 9 8 9 10 9 8 9 10 9 9 9 8 8 8 8 7 6 6 6 6 7 6 6 8 12 12 11 10 8 8 9 8 7 8 9 8 6 4 5
11 11 11 10 9 8 9 10 9 9 10 10 9 9 9 9 9 7 6 6 5 6 6 6 6 6 6 5 5 6 8 9 8 8 8 8 6 7 7 6 6 7 7
10 10 10 10 9 9 9 9 9 9 10 10 9 9 9 10 10 10 9 8 8 6 5 6 6 6 6 6 8 6 6 6 5 5 6 6 6 6 7 7 7 6 6
10 10 11 11 10 9 9 8 8 8 9 9 8 8 8 9 9 11 11 18 15 17 16 13 10 10 10 9 11 11 10 7 2 4 7 7 7 7 7 6 7 7 7
Wind_Direction
194 191 191 191 189 189 189 191 196 193 193 193 196 197 200 204 207 210 209 211 213 211 217 225 203 220 221 224 224 230 227 235 239 254 257 246 238 237 235 237 241 231 228
191 190 192 192 192 191 191 192 196 196 199 198 200 202 207 211 211 212 208 215 217 219 218 223 223 219 223 224 230 234 247 245 232 249 262 257 233 224 225 228 231 236 230
195 192 192 194 195 195 196 196 197 196 202 200 199 198 204 217 213 213 213 214 217 220 227 224 231 228 229 226 227 229 238 247 244 238 249 265 266 259 213 221 228 231 237
198 194 193 195 198 198 197 199 197 199 200 200 204 203 210 217 220 218 215 214 217 221 221 226 228 230 233 229 232 231 236 245 253 244 243 257 283 278 262 226 217 222 232
199 196 196 196 197 196 196 197 196 198 200 204 208 211 219 224 224 222 220 221 220 223 223 223 227 228 234 234 236 230 233 237 247 253 248 246 249 252 263 272 259 238 232
198 196 194 191 193 193 194 194 195 199 200 205 210 213 219 224 226 223 224 220 222 223 224 226 225 227 230 230 230 229 229 240 247 254 252 248 251 252 256 264 265 261 251
195 193 190 188 189 191 193 195 196 199 201 205 209 212 217 220 225 227 226 225 228 225 223 227 226 229 228 231 230 229 236 235 239 245 250 250 254 259 260 265 270 269 262
189 190 191 189 189 189 190 194 195 198 201 205 209 212 214 219 224 223 231 226 228 230 227 225 227 227 227 229 226 231 232 232 236 242 247 254 257 259 258 259 267 272 267
185 187 190 189 190 189 190 193 192 197 200 204 207 211 213 219 223 220 225 231 231 229 223 223 226 225 226 230 228 233 235 235 237 240 239 245 253 257 260 256 255 261 270
175 178 182 185 185 185 186 190 192 194 198 200 205 209 214 216 217 219 223 228 230 231 224 221 225 227 228 229 229 232 233 234 239 243 246 248 250 253 256 254 254 255 260
170 172 173 175 178 180 182 186 189 191 193 199 203 211 213 211 212 216 220 220 225 227 225 223 223 222 226 228 229 233 232 232 235 238 238 241 248 250 254 253 251 251 253
162 163 164 167 171 175 177 180 184 187 190 194 198 205 211 209 209 212 216 218 219 222 222 220 220 221 225 228 233 236 234 233 234 234 238 244 243 245 254 254 250 250 251
153 152 155 162 167 171 175 175 179 182 183 184 188 195 201 200 202 205 205 206 210 214 211 207 217 226 226 226 232 230 231 231 233 240 244 254 258 264 263 260 258 255 252
151 149 149 153 156 164 167 167 169 167 167 168 173 179 186 184 187 192 195 196 191 189 193 198 206 216 218 212 212 215 215 212 216 230 252 272 279 282 287 277 274 271 260
152 148 146 143 147 154 157 156 150 147 149 149 150 155 158 162 168 173 174 173 174 179 179 180 183 187 189 193 186 190 189 185 184 184 176 18 53 34 6 330 317 299 287
153 147 142 140 143 144 145 140 135 134 139 140 139 143 145 146 145 152 155 155 155 157 158 153 151 141 124 68 64 87 124 123 124 114 92 88 80 74 61 48 36 18 344
150 144 141 139 136 133 134 132 128 130 130 129 128 128 130 129 133 138 132 135 136 132 127 124 121 106 71 70 71 62 94 91 83 84 77 70 64 65 71 68 62 45 31
147 142 139 134 130 128 128 126 126 127 125 121 118 117 119 120 120 119 117 117 118 116 111 110 110 103 82 75 81 83 89 80 70 64 61 63 53 46 59 67 63 55 46
141 138 136 132 127 125 124 124 123 122 116 110 106 108 111 110 111 110 107 109 110 107 104 101 99 98 84 68 74 92 97 88 76 66 56 55 60 42 55 81 76 71 67
130 130 129 127 122 119 120 124 121 117 111 108 106 103 102 103 108 110 109 109 108 104 100 92 85 85 80 59 52 65 103 97 89 76 64 56 53 42 43 78 81 75 63
127 126 123 119 118 121 122 118 114 110 110 109 104 101 100 101 104 104 105 107 104 99 93 89 83 79 75 72 56 47 86 98 92 82 73 60 55 53 46 51 63 55 57
129 126 121 116 117 120 119 112 108 108 108 106 104 101 97 98 100 100 100 103 107 105 100 96 88 78 72 65 63 60 62 69 88 85 83 77 69 67 61 63 49 16 26
125 124 121 116 112 113 115 112 109 113 112 108 104 101 97 93 95 99 102 103 105 108 107 104 98 91 86 82 77 74 72 72 86 87 83 80 79 91 78 62 33 33 56
125 124 121 115 110 108 109 112 116 117 115 112 108 106 101 94 86 83 86 90 95 102 106 103 99 95 87 80 87 94 98 105 103 102 110 108 88 87 87 78 61 56 48
125 125 121 119 116 114 113 116 120 121 118 115 114 110 102 96 86 74 57 66 60 58 83 97 99 100 93 60 47 74 85 89 93 107 101 90 85 77 72 70 65 60 59
125 124 122 121 119 117 114 116 121 126 124 121 120 116 113 109 106 101 83 57 62 61 59 60 77 80 83 85 76 71 68 66 48 98 90 83 77 73 69 66 65 60 53
Height
1530 1534 1537 1540 1543 1546 1548 1551 1555 1557 1560 1562 1565 1567 1569 1571 1573 1574 1576 1578 1579 1581 1582 1584 1584 1586 1587 1588 1589 1590 1591 1591 1592 1592 1592 1592 1591 1591 1591 1592 1592 1593 1593
1527 1530 1534 1537 1540 1542 1545 1548 1551 1554 1557 1560 1562 1565 1567 1569 1571 1572 1573 1575 1577 1579 1580 1581 1583 1584 1585 1586 1587 1588 1589 1590 1590 1591 1590 1590 1591 1589 1589 1589 1589 1590 1590
1522 1526 1529 1533 1536 1539 1542 1545 1548 1551 1554 1557 1560 1562 1564 1566 1568 1569 1571 1573 1574 1576 1577 1579 1580 1581 1582 1584 1584 1585 1586 1587 1588 1588 1589 1589 1587 1587 1587 1586 1587 1586 1587
1518 1522 1525 1528 1532 1535 1539 1542 1545 1548 1551 1554 1556 1559 1561 1563 1565 1567 1569 1570 1571 1573 1574 1576 1577 1578 1579 1580 1581 1583 1584 1584 1585 1586 1585 1586 1586 1586 1584 1584 1584 1584 1583
1514 1518 1521 1524 1528 1532 1535 1538 1541 1545 1548 1551 1553 1555 1558 1561 1563 1564 1565 1567 1568 1569 1571 1572 1573 1574 1576 1577 1578 1579 1580 1581 1582 1583 1583 1582 1582 1583 1583 1582 1582 1582 1581
1510 1514 1518 1522 1525 1529 1532 1535 1537 1540 1544 1547 1549 1551 1554 1557 1559 1561 1562 1563 1565 1566 1567 1568 1569 1570 1572 1573 1574 1575 1576 1577 1578 1578 1579 1579 1579 1579 1579 1579 1578 1578 1578
1506 1510 1514 1517 1521 1524 1528 1531 1533 1536 1540 1542 1545 1547 1550 1552 1554 1557 1558 1559 1561 1562 1563 1564 1565 1566 1567 1568 1570 1571 1572 1572 1573 1574 1575 1575 1576 1576 1575 1575 1575 1574 1574
1503 1507 1510 1513 1517 1520 1523 1527 1530 1533 1536 1538 1540 1543 1546 1548 1550 1552 1554 1555 1556 1558 1559 1559 1561 1562 1563 1564 1565 1566 1567 1568 1569 1570 1570 1571 1571 1571 1571 1571 1571 1571 1570
1500 1504 1507 1511 1514 1517 1520 1523 1526 1529 1532 1534 1537 1539 1542 1544 1546 1548 1549 1551 1552 1553 1554 1555 1556 1557 1559 1560 1561 1562 1562 1563 1564 1565 1565 1566 1566 1566 1566 1567 1567 1568 1566
1499 1502 1505 1508 1511 1514 1517 1520 1522 1525 1528 1531 1533 1536 1538 1540 1542 1544 1545 1546 1548 1549 1550 1550 1552 1553 1554 1556 1556 1557 1558 1559 1559 1560 1560 1561 1561 1561 1561 1562 1562 1563 1563
1497 1500 1503 1506 1509 1512 1514 1517 1519 1522 1525 1528 1530 1532 1534 1536 1537 1539 1541 1542 1543 1545 1546 1546 1548 1549 1550 1551 1552 1553 1554 1554 1555 1555 1556 1556 1556 1556 1556 1557 1557 1557 1558
1497 1499 1502 1505 1507 1510 1513 1515 1517 1520 1522 1525 1527 1528 1531 1532 1534 1536 1537 1539 1540 1541 1542 1543 1544 1545 1546 1547 1548 1549 1550 1550 1551 1551 1552 1552 1552 1552 1552 1552 1552 1552 1552
1496 1499 1502 1504 1506 1509 1511 1513 1516 1518 1520 1522 1524 1526 1528 1529 1531 1532 1534 1535 1536 1538 1539 1540 1541 1542 1543 1544 1544 1545 1546 1547 1547 1548 1548 1548 1548 1548 1547 1547 1547 1547 1547
1497 1499 1501 1503 1505 1507 1510 1512 1515 1517 1519 1520 1522 1523 1525 1527 1529 1530 1531 1533 1534 1535 1536 1537 1539 1539 1540 1541 1541 1542 1542 1543 1544 1545 1545 1545 1545 1545 1544 1544 1543 1544 1543
1496 1499 1501 1503 1505 1507 1509 1511 1513 1515 1517 1519 1520 1522 1524 1525 1527 1528 1529 1530 1532 1533 1534 1536 1537 1537 1538 1538 1539 1539 1540 1541 1541 1542 1543 1543 1543 1543 1542 1542 1541 1541 1540
1496 1498 1500 1502 1505 1507 1509 1511 1512 1514 1516 1518 1520 1521 1523 1524 1525 1526 1528 1529 1530 1532 1533 1534 1535 1536 1537 1537 1538 1538 1539 1539 1540 1540 1541 1541 1541 1541 1540 1540 1539 1539 1538
1496 1498 1500 1502 1504 1506 1508 1510 1512 1515 1516 1518 1519 1521 1522 1523 1524 1526 1527 1528 1530 1531 1532 1533 1534 1535 1536 1537 1537 1538 1538 1539 1539 1540 1540 1540 1540 1540 1539 1538 1538 1537 1536
1495 1497 1500 1502 1504 1506 1508 1511 1513 1515 1517 1518 1519 1520 1522 1523 1524 1525 1527 1528 1530 1531 1532 1533 1534 1535 1535 1536 1537 1538 1538 1538 1538 1539 1539 1539 1539 1539 1538 1538 1537 1536 1535
1495 1497 1500 1502 1504 1507 1509 1511 1513 1515 1517 1518 1519 1521 1522 1523 1525 1526 1527 1529 1530 1531 1532 1533 1534 1534 1535 1536 1536 1537 1537 1538 1538 1539 1539 1539 1539 1538 1538 1537 1536 1536 1535
1494 1497 1500 1502 1504 1507 1509 1512 1514 1516 1518 1519 1520 1521 1523 1524 1525 1526 1528 1529 1531 1532 1533 1533 1534 1534 1535 1536 1537 1537 1538 1538 1538 1539 1539 1539 1538 1538 1537 1537 1536 1536 1535
1494 1497 1500 1503 1505 1507 1510 1512 1515 1516 1518 1520 1521 1522 1523 1525 1526 1527 1528 1530 1531 1532 1533 1534 1534 1535 1536 1536 1537 1537 1538 1538 1539 1539 1539 1539 1539 1538 1538 1537 1537 1536 1537
1496 1498 1501 1504 1506 1509 1511 1513 1515 1517 1519 1520 1522 1523 1524 1526 1527 1528 1529 1531 1532 1533 1534 1535 1536 1536 1537 1537 1538 1538 1538 1538 1539 1539 1540 1540 1540 1539 1539 1538 1538 1538 1538
1497 1500 1502 1505 1507 1509 1511 1513 1515 1517 1519 1521 1522 1523 1525 1526 1528 1529 1531 1532 1533 1535 1536 1536 1537 1538 1538 1539 1539 1539 1539 1539 1540 1540 1541 1541 1541 1541 1541 1540 1540 1540 1540
1498 1501 1503 1505 1508 1510 1512 1514 1516 1518 1520 1521 1523 1525 1526 1528 1529 1531 1533 1534 1535 1536 1537 1538 1538 1539 1540 1540 1541 1541 1541 1542 1542 1542 1543 1543 1543 1543 1543 1543 1543 1542 1542
1498 1501 1504 1506 1509 1511 1513 1515 1517 1518 1520 1522 1524 1526 1527 1528 1530 1532 1533 1534 1535 1537 1538 1539 1540 1540 1540 1541 1542 1543 1543 1543 1544 1545 1546 1546 1547 1546 1546 1546 1545 1545 1544
1498 1502 1505 1507 1509 1512 1514 1515 1517 1519 1521 1523 1525 1527 1529 1530 1532 1534 1535 1536 1537 1538 1539 1540 1541 1541 1542 1542 1543 1544 1544 1545 1546 1548 1548 1548 1548 1548 1548 1548 1548 1547 1547